Regional Weather Roundup
Issued by NWS

Home | Current Version | Previous Version | Text Only | Print | Product List | Glossary Off
Versions: 1 2 3 4 5 6 7 8 9 10 11 12 13 14 15 16 17 18 19 20 21 22 23 24 25 26 27 28 29 30 31 32 33 34 35 36 37 38 39 40 41 42 43 44 45 46 47 48 49 50

000
ASUS43 KOAX 260802
RWRNE

WEATHER ROUNDUP FOR NEBRASKA
NATIONAL WEATHER SERVICE OMAHA NE
200 AM CST FRI DEC 26 2014

NOTES: SATELLITE DATA IS BEING USED TO AUGMENT CLOUD COVER ABOVE
       12000 FEET.
       "FAIR" INDICATES FEW OR NO CLOUDS BELOW 12,000 FEET WITH NO
       SIGNIFICANT WEATHER AND/OR OBSTRUCTIONS TO VISIBILITY.

  * THESE STATIONS DO NOT REPORT WEATHER SUCH AS RAIN...SNOW OR FOG.

NEZ001>004-019>022-054>056-260900-
NEBRASKA PANHANDLE

CITY           SKY/WX    TMP DP  RH WIND       PRES   REMARKS
SCOTTSBLUFF    LGT SNOW  21  18  88 N7        29.94F FOG     WCI  12
ALLIANCE       LGT SNOW  21  19  92 N15       29.91S VSB 1   WCI   8
CHADRON        CLOUDY    21  17  84 NE15      30.00R WCI   8
KIMBALL          N/A     17  16  93 N12       29.85F WCI   5
SIDNEY         LGT SNOW  20  17  88 N13       29.88S FOG     WCI   7
$$

NEZ057>060-069>072-079>082-260900-
SOUTHWEST NEBRASKA

CITY           SKY/WX    TMP DP  RH WIND       PRES   REMARKS
NORTH PLATTE   CLOUDY    25  21  85 N18G25    29.90R WCI  11
IMPERIAL       CLOUDY    25  20  81 N22       29.89R WCI  10
LEXINGTON      CLOUDY    29  26  87 N18G24    29.88R WCI  16
MCCOOK         CLOUDY    28  25  88 N14       29.88R WCI  17
OGALLALA       CLOUDY    25  22  89 N13       29.91S WCI  14
$$

NEZ005>010-023>029-035>040-094-260900-
NORTH CENTRAL NEBRASKA

CITY           SKY/WX    TMP DP  RH WIND       PRES   REMARKS
VALENTINE      CLOUDY    23  20  88 N13       29.95R WCI  11
AINSWORTH      CLOUDY    23  22  94 N17       29.93R WCI  10
BROKEN BOW     CLOUDY    26  23  88 N24G31    29.88R WCI  11
O`NEILL        CLOUDY    27  26  99 N15G22    29.90S FOG     WCI  15
ORD            CLOUDY    27  23  85 N22G29    29.88R WCI  13
$$

NEZ041-046>049-061>064-073>077-083>087-260900-
SOUTH CENTRAL NEBRASKA

CITY           SKY/WX    TMP DP  RH WIND       PRES   REMARKS
GRAND ISLAND   CLOUDY    29  27  92 N18       29.86R WCI  16
AURORA         CLOUDY    31  30  97 N20       29.83R FOG     WCI  19
HASTINGS       CLOUDY    30  27  88 N21G26    29.83R WCI  17
HEBRON         CLOUDY    32  30  92 N15G22    29.80R WCI  22
HOLDREGE       CLOUDY    29  26  88 N16G25    29.84R WCI  17
KEARNEY *      CLOUDY    28  25  86 NW18      29.86R WCI  16
YORK           CLOUDY    32  32 100 N23G31    29.81R WCI  19
$$

NEZ011>018-030>034-042>045-260900-
NORTHEAST NEBRASKA

CITY           SKY/WX    TMP DP  RH WIND       PRES   REMARKS
NORFOLK        CLOUDY    31  28  89 N15       29.84R WCI  20
ALBION         CLOUDY    29  26  87 N14G20    29.86R WCI  18
BLAIR          CLOUDY    33  31  93 N15G23    29.77R WCI  23
COLUMBUS *     CLOUDY    32  27  80 N18       29.84R WCI  20
FREMONT        CLOUDY    34  33  96 NW9G18    29.81R WCI  26
TEKAMAH        CLOUDY    34  31  88 N20       29.80S WCI  23
WAYNE          CLOUDY    31  29  91 N16       29.86R WCI  20
$$

NEZ050>053-065>068-078-088>093-260900-
SOUTHEAST NEBRASKA

CITY           SKY/WX    TMP DP  RH WIND       PRES   REMARKS
LINCOLN        CLOUDY    33  30  88 N16       29.80R WCI  23
OMAHA EPPLEY   MOCLDY    32  30  92 N13       29.80R WCI  22
BEATRICE       CLEAR     29  28  95 N7        29.77R WCI  22
FALLS CITY     CLEAR     35  28  75 SE5       29.77R WCI  31
NEBRASKA CITY  CLEAR     33  28  81 W10       29.77R WCI  25
PLATTSMOUTH    CLEAR     33  29  84 W7        29.77R WCI  27
$$

NEZ044-045-051>053-067-260900-
OMAHA AREA

CITY           SKY/WX    TMP DP  RH WIND       PRES   REMARKS
OMAHA EPPLEY   MOCLDY    32  30  92 N13       29.80R WCI  22
BLAIR          CLOUDY    33  31  93 N15G23    29.77R WCI  23
FREMONT        CLOUDY    34  33  96 NW9G18    29.81R WCI  26
MILLARD        MOCLDY    32  29  90 NW7       29.79R WCI  26
OFFUTT AFB     CLEAR     29  27  93 NW6       29.77R WCI  23
PLATTSMOUTH    CLEAR     33  29  84 W7        29.77R WCI  27
WAHOO          CLOUDY    33  31  92 N24       29.79R FOG     WCI  20
$$


USA.gov is the U.S. government's official web portal to all federal, state and local government web resources and services.